Location: Kalberh�ni
(46.4610°N, 7.2453°E)
Time: 07:10:43
(UTC+00:00)

Cosmos 2219 Rocket - Pass Details

Date: 20 June 2021
Orbit: 829 x 846 km, 71.0° (Epoch: 28 July)

Event Time Altitude Azimuth Distance (km) Brightness Sun altitude
Rises 21:58:10 0° 225° (SW) 3,395 5.1 -16.9°
Reaches altitude 10° 22:00:43 10° 232° (SW) 2,464 4.5 -17.1°
Maximum altitude 22:06:07 45° 304° (NW) 1,147 3.3 -17.4°
Drops below altitude 10° 22:11:33 10° 17° (NNE) 2,474 5.4 -17.7°
Sets 22:14:07 0° 24° (NNE) 3,410 6.1 -17.9°
